TimeEDT,TemperatureF,Dew PointF,Humidity,Sea Level PressureIn,VisibilityMPH,Wind Direction,Wind SpeedMPH,Gust SpeedMPH,PrecipitationIn,Events,Conditions,WindDirDegrees,DateUTC
12:15 AM,30.2,17.6,60,29.89,10.0,North,4.6,-,N/A,,Clear,10,2013-03-24 04:15:00
12:35 AM,28.4,15.8,59,29.92,10.0,Calm,Calm,-,N/A,,Clear,0,2013-03-24 04:35:00
12:55 AM,30.2,15.8,55,29.90,10.0,North,3.5,-,N/A,,Clear,10,2013-03-24 04:55:00
1:15 AM,26.6,17.6,69,29.88,10.0,NE,3.5,-,N/A,,Clear,40,2013-03-24 05:15:00
1:35 AM,28.4,17.6,64,29.87,10.0,NNE,6.9,-,N/A,,Clear,20,2013-03-24 05:35:00
1:55 AM,28.4,17.6,64,29.87,10.0,NNE,6.9,-,N/A,,Clear,20,2013-03-24 05:55:00
2:15 AM,28.4,17.6,64,29.89,10.0,Calm,Calm,-,N/A,,Clear,0,2013-03-24 06:15:00
2:35 AM,28.4,17.6,64,29.89,10.0,Calm,Calm,-,N/A,,Clear,0,2013-03-24 06:35:00
2:55 AM,28.4,17.6,64,29.89,10.0,NNE,3.5,-,N/A,,Clear,20,2013-03-24 06:55:00
3:35 AM,28.4,17.6,64,29.89,10.0,North,4.6,-,N/A,,Clear,10,2013-03-24 07:35:00
3:55 AM,28.4,17.6,64,29.89,10.0,NE,4.6,-,N/A,,Clear,50,2013-03-24 07:55:00
4:15 AM,28.4,17.6,64,29.89,10.0,North,4.6,-,N/A,,Clear,10,2013-03-24 08:15:00
4:35 AM,28.4,17.6,64,29.85,10.0,NNE,4.6,-,N/A,,Clear,30,2013-03-24 08:35:00
4:55 AM,28.4,15.8,59,29.84,10.0,North,9.2,-,N/A,,Clear,10,2013-03-24 08:55:00
5:15 AM,30.2,14.0,51,29.84,10.0,North,5.8,-,N/A,,Clear,10,2013-03-24 09:15:00
5:35 AM,28.4,15.8,59,29.83,10.0,NNE,5.8,-,N/A,,Clear,30,2013-03-24 09:35:00
5:55 AM,28.4,17.6,64,29.83,10.0,NNE,4.6,-,N/A,,Clear,20,2013-03-24 09:55:00
6:15 AM,30.2,15.8,55,29.83,10.0,North,5.8,-,N/A,,Clear,10,2013-03-24 10:15:00
6:35 AM,32.0,15.8,51,29.84,10.0,NNE,3.5,-,N/A,,Clear,30,2013-03-24 10:35:00
6:55 AM,32.0,14.0,48,29.83,10.0,ENE,4.6,-,N/A,,Scattered Clouds,70,2013-03-24 10:55:00
7:15 AM,32.0,15.8,51,29.83,10.0,Calm,Calm,-,N/A,,Scattered Clouds,0,2013-03-24 11:15:00
7:35 AM,30.2,15.8,55,29.82,10.0,NNE,3.5,-,N/A,,Clear,30,2013-03-24 11:35:00
7:55 AM,32.0,15.8,51,29.81,10.0,Calm,Calm,-,N/A,,Mostly Cloudy,0,2013-03-24 11:55:00
8:15 AM,32.0,17.6,55,29.81,10.0,NE,3.5,-,N/A,,Overcast,40,2013-03-24 12:15:00
8:35 AM,32.0,15.8,51,29.81,10.0,ENE,4.6,-,N/A,,Overcast,70,2013-03-24 12:35:00
8:55 AM,32.0,14.0,48,29.80,10.0,East,3.5,-,N/A,,Overcast,90,2013-03-24 12:55:00
9:15 AM,32.0,14.0,48,29.80,10.0,East,5.8,-,N/A,,Overcast,80,2013-03-24 13:15:00
9:35 AM,32.0,14.0,48,29.79,10.0,East,8.1,-,N/A,,Overcast,100,2013-03-24 13:35:00
9:55 AM,32.0,15.8,51,29.79,10.0,East,6.9,-,N/A,,Overcast,90,2013-03-24 13:55:00
10:15 AM,32.0,17.6,55,29.77,10.0,ESE,5.8,-,N/A,,Light Drizzle,120,2013-03-24 14:15:00
10:35 AM,32.0,17.6,55,29.76,7.0,East,6.9,-,N/A,Snow,Light Snow,100,2013-03-24 14:35:00
10:55 AM,32.0,19.4,60,29.76,5.0,ESE,6.9,-,N/A,Snow,Light Snow,110,2013-03-24 14:55:00
11:15 AM,30.2,21.2,69,29.74,5.0,SE,11.5,-,N/A,Snow,Light Snow,130,2013-03-24 15:15:00
11:35 AM,30.2,21.2,69,29.74,7.0,East,6.9,-,N/A,Snow,Light Snow,100,2013-03-24 15:35:00
11:55 AM,30.2,23.0,75,29.72,2.0,East,6.9,-,0.01,Snow,Light Snow,80,2013-03-24 15:55:00
12:15 PM,30.2,23.0,75,29.72,4.0,East,5.8,-,0.01,Snow,Light Snow,90,2013-03-24 16:15:00
12:35 PM,30.2,24.8,80,29.70,3.0,East,4.6,-,0.01,Snow,Light Snow,90,2013-03-24 16:35:00
12:55 PM,30.2,24.8,80,29.68,2.5,East,3.5,-,0.03,Snow,Light Snow,100,2013-03-24 16:55:00
1:15 PM,28.4,24.8,86,29.68,1.8,Calm,Calm,-,0.02,Snow,Light Snow,0,2013-03-24 17:15:00
1:35 PM,28.4,24.8,86,29.68,1.2,East,3.5,-,0.04,Snow,Light Snow,100,2013-03-24 17:35:00
1:55 PM,28.4,26.6,93,29.67,1.0,East,3.5,-,0.06,Snow,Light Snow,100,2013-03-24 17:55:00
2:15 PM,28.4,26.6,93,29.66,1.0,ENE,3.5,-,0.01,Snow,Light Snow,70,2013-03-24 18:15:00
2:35 PM,28.4,26.6,93,29.65,0.8,ESE,3.5,-,0.03,Snow,Light Snow,110,2013-03-24 18:35:00
2:55 PM,28.4,26.6,93,29.65,0.5,Calm,Calm,-,0.06,Snow,Snow,0,2013-03-24 18:55:00
3:15 PM,28.4,26.6,93,29.64,1.0,East,3.5,-,N/A,Snow,Light Snow,80,2013-03-24 19:15:00
3:35 PM,28.4,26.6,93,29.64,0.5,Calm,Calm,-,0.03,Snow,Snow,0,2013-03-24 19:35:00
3:55 PM,28.4,26.6,93,29.63,0.2,NE,3.5,-,0.06,Snow,Heavy Snow,50,2013-03-24 19:55:00
4:15 PM,28.4,26.6,93,29.61,0.5,NE,4.6,-,0.01,Snow,Snow,50,2013-03-24 20:15:00
4:35 PM,28.4,26.6,93,29.60,3.0,NE,3.5,-,0.01,Snow,Light Snow,40,2013-03-24 20:35:00
4:55 PM,28.4,26.6,93,29.59,2.5,NE,4.6,-,0.01,Snow,Light Snow,40,2013-03-24 20:55:00
5:15 PM,28.4,26.6,93,29.58,2.5,NE,5.8,-,N/A,Snow,Light Snow,50,2013-03-24 21:15:00
5:35 PM,30.2,26.6,86,29.57,1.8,ENE,6.9,-,0.01,Snow,Light Snow,70,2013-03-24 21:35:00
5:55 PM,30.2,26.6,86,29.55,7.0,NE,5.8,-,0.01,Snow,Light Snow,40,2013-03-24 21:55:00
6:15 PM,30.2,26.6,86,29.56,10.0,ENE,5.8,-,N/A,,Overcast,60,2013-03-24 22:15:00
6:35 PM,30.2,26.6,86,29.56,7.0,East,3.5,-,N/A,,Overcast,80,2013-03-24 22:35:00
7:15 PM,28.4,26.6,93,29.52,7.0,East,6.9,16.1,N/A,,Overcast,80,2013-03-24 23:15:00
7:35 PM,28.4,26.6,93,29.54,10.0,East,6.9,-,N/A,,Overcast,80,2013-03-24 23:35:00
8:15 PM,28.4,26.6,93,29.54,3.0,East,3.5,-,N/A,,Overcast,90,2013-03-25 00:15:00
8:35 PM,28.4,26.6,93,29.55,4.0,ESE,3.5,-,N/A,,Overcast,110,2013-03-25 00:35:00
8:55 PM,28.4,26.6,93,29.56,7.0,East,5.8,-,N/A,,Overcast,90,2013-03-25 00:55:00
9:15 PM,28.4,26.6,93,29.55,7.0,ESE,4.6,-,N/A,,Overcast,110,2013-03-25 01:15:00
9:35 PM,28.4,26.6,93,29.54,7.0,ESE,6.9,-,N/A,,Overcast,110,2013-03-25 01:35:00
9:55 PM,28.4,26.6,93,29.53,7.0,East,3.5,-,N/A,,Overcast,100,2013-03-25 01:55:00
10:15 PM,28.4,26.6,93,29.51,7.0,East,6.9,-,N/A,,Overcast,80,2013-03-25 02:15:00
10:35 PM,28.4,26.6,93,29.51,10.0,East,4.6,-,N/A,,Overcast,90,2013-03-25 02:35:00
10:55 PM,28.4,26.6,93,29.51,10.0,ESE,3.5,-,N/A,,Overcast,120,2013-03-25 02:55:00
11:15 PM,28.4,26.6,93,29.53,2.0,Calm,Calm,-,0.01,Snow,Light Snow,0,2013-03-25 03:15:00
11:35 PM,28.4,26.6,93,29.52,1.2,Calm,Calm,-,0.04,Snow,Light Snow,0,2013-03-25 03:35:00
11:55 PM,28.4,26.6,93,29.53,1.0,Calm,Calm,-,0.05,,Overcast,0,2013-03-25 03:55:00